x

Cape Elizabeth- 45nm Nw Of Aberdeen, Wa (46041) Wave Buoy

1:50 - Fri 18th Apr 2014 All times are PDT. -7 hours from GMT.

  • Sig Wave height 7.9ft
  • Peak Period 10s
  • Average Period 8s
  • Wind
    4mph, 7mph gusts
  • Sea Temp 51°f
  • Sea Pressure 1019.5mb
  • Cape Elizabeth- 45nm Nw Of Aberdeen, Wa
  • Cape Elizabeth- 45nm Nw Of Aberdeen, Wa

More Historic Weather Station data

Upgrade to MSW Pro to gain access to the past 30 days of data for over 8000 Wavebouys and Weather Stations around the globe.

Join Pro

Comparision Forecast

View Surf forecast
   
Fr 04/18 1:50 8ft 10s 8s 4 7 mph 1019.5mb 51f
12:50 9ft 11s 8s 9 11 mph 1019.7mb 51f
11:50 9ft 11s 7s 7 11 mph 1020.2mb 51f
10:50 8.5ft 11s 7s 2
mph
1020.1mb 50f
9:50 9ft 10s 7s 4 9 mph 1019.7mb 50f
8:50 9ft 10s 7s 9 11 mph 1019.3mb 50f
7:50 9ft 9s 7s 11 13 mph 1018.8mb 50f
6:50 10ft 11s 7s 13 16 mph 1018.2mb 50f
5:50 10ft 11s 7s 16 18 mph 1017.6mb 50f
4:50 9.5ft 11s 7s 13 16 mph 1017.3mb 50f
3:50 9.5ft 11s 7s 16 20 mph 1016.7mb 50f
2:50 9.5ft 11s 7s 16 20 mph 1016.2mb 50f
1:50 10ft 11s 7s 18 22 mph 1015.8mb 50f
12:50 10ft 10s 7s 20 25 mph 1015.4mb 50f
Do 04/17 11:50 9ft 12s 7s 20 31 mph 1014.8mb 51f
10:50 8.5ft 10s 7s 16 20 mph 1014.2mb 51f
9:50 8.5ft 10s 6s 20 27 mph 1013.3mb 51f
8:50 8.5ft 11s 6s 22 27 mph 1012.3mb 51f
7:50 8.5ft 11s 6s 22 27 mph 1011mb 51f
6:50 8.5ft 11s 6s 18 22 mph 1010mb 51f
5:50 9ft 11s 6s 20 25 mph 1009.3mb 51f
3:50 9ft 11s 6s 27 31 mph 1006.7mb 51f
2:50 9ft 11s 6s 20 29 mph 1006mb 51f
1:50 9ft 11s 6s 22 27 mph 1006.5mb 51f
12:50 8ft 12s 6s 22 27 mph 1006.9mb 51f
11:50 8ft 11s 6s 22 27 mph 1007.3mb 51f
10:50 6.5ft 11s 6s 22 27 mph 1007.9mb 51f
9:50 7ft 11s 7s 20 25 mph 1008.4mb 51f
8:50 7.5ft 11s 8s 18 22 mph 1009.1mb 51f
7:50 8ft 11s 8s 13 16 mph 1009.5mb 51f
6:50 7ft 11s 7s 16 20 mph 1009.8mb 51f
5:50 8ft 11s 8s 16 18 mph 1009.9mb 51f
4:50 8ft 10s 7s 11 16 mph 1010.1mb 51f
3:50 9ft 11s 8s 13 16 mph 1010.5mb 51f
2:50 9ft 11s 7s 11 16 mph 1011mb 51f
1:50 8ft 11s 7s 13 16 mph 1011.9mb 51f
12:50 8ft 11s 7s 11 13 mph 1012.5mb 51f
Mi 04/16 11:50 8ft 12s 7s 11 16 mph 1012.7mb 51f
10:50 9ft 11s 8s 13 16 mph 1013mb 51f
9:50 8ft 12s 7s 13 16 mph 1013.2mb 51f
8:50 8ft 12s 8s 13 16 mph 1013.3mb 51f
7:50 8ft 12s 8s 11
mph
1013.5mb 51f
6:50 7.5ft 11s 8s 9 11 mph 1014.2mb 51f
5:50 7ft 13s 8s 7 9 mph 1014.7mb 51f
4:50 7ft 11s 8s 7 9 mph 1015.1mb 51f
3:50 8ft 13s 8s 9 11 mph 1015.6mb 51f
2:50 8ft 14s 8s 9 11 mph 1015.9mb 51f
1:50 7.5ft 14s 7s 11 13 mph 1015.9mb 51f
12:50 8ft 10s 7s 11 13 mph 1015.7mb 51f
11:50 7.5ft 14s 6s 13 16 mph 1016mb 51f
10:50 7.5ft 8s 6s 18 20 mph 1016.1mb 51f
9:50 7ft 11s 6s 18 20 mph 1016mb 51f
8:50 6.5ft 8s 6s 18 22 mph 1016.1mb 50f
7:50 7ft 9s 7s 16 20 mph 1016.4mb 50f
6:50 7ft 11s 7s 11 16 mph 1016.6mb 51f
5:50 7ft 8s 6s 11
mph
1016.8mb 51f
4:50 7ft 12s 7s 11 13 mph 1017mb 51f
3:50 6.5ft 10s 7s 13 16 mph 1017mb 51f
2:50 6ft 12s 6s 13 18 mph 1017.3mb 51f
1:50 6.5ft 11s 6s 13 18 mph 1017.7mb 51f
12:50 7ft 10s 7s 16 20 mph 1018mb 51f
Di 04/15 11:50 6.5ft 11s 7s 13 16 mph 1018.2mb 51f
10:50 6ft 9s 6s 16 18 mph 1018.3mb 51f
9:50 6.5ft 9s 7s 11 13 mph 1018.6mb 51f
8:50 7.5ft 10s 7s 16 18 mph 1018.6mb 51f
7:50 7.5ft 9s 7s 16 20 mph 1018.7mb 51f
6:50 7.5ft 10s 7s 13 18 mph 1018.7mb 51f
5:50 8ft 10s 6s 18 22 mph 1019.6mb 51f
4:50 8.5ft 10s 7s 22 27 mph 1020.3mb 51f
3:50 7.5ft 11s 7s 20 25 mph 1020.7mb 51f
2:50 8.5ft 12s 7s 18 20 mph 1021.3mb 51f
1:50 8.5ft 11s 8s 16 20 mph 1021.8mb 51f
12:50 8ft 11s 8s 13 16 mph 1022.5mb 51f
11:50 8ft 12s 8s 13 16 mph 1022.9mb 51f
10:50 7.5ft 12s 7s 11 13 mph 1023.1mb 51f
9:50 8.5ft 12s 8s 9 11 mph 1022.9mb 51f
8:50 9.5ft 12s 8s 7 9 mph 1022.8mb 51f
7:50 9.5ft 12s 8s 11 13 mph 1022.6mb 51f
6:50 10ft 12s 9s 13 16 mph 1022.7mb 50f
5:50  -   -   -  11 18 mph 1022.7mb 50f
4:50 9ft 12s 8s 11 16 mph 1022.7mb 50f
3:50 7.5ft 12s 7s 16 18 mph 1022.9mb 50f
2:50 6ft 13s 6s 16 20 mph 1023mb 50f
1:50 5.5ft 13s 6s 13 18 mph 1023.3mb 51f
12:50 5.5ft 7s 6s 13 16 mph 1022.9mb 51f
Mo 04/14 11:50 5.5ft 6s 6s 13 18 mph 1023mb 51f
10:50 5.5ft 14s 5s 18 20 mph 1023.2mb 51f
9:50 5.5ft 13s 5s 16 20 mph 1023mb 51f